Regional Weather Roundup
Issued by NWS

Home | Current Version | Previous Version | Graphics & Text | Print | Product List | Glossary On
Versions: 1 2 3 4 5 6 7 8 9 10 11 12 13 14 15 16 17 18 19 20 21 22 23 24 25 26 27 28 29 30 31 32 33 34 35 36 37 38 39 40 41 42 43 44 45 46 47 48 49 50
000
ASUS43 KDMX 251907
RWRIA

WEATHER ROUNDUP FOR IOWA
NATIONAL WEATHER SERVICE DES MOINES IA
200 PM CDT FRI JUL 25 2014

NOTE: "FAIR" INDICATES FEW OR NO CLOUDS BELOW 12,000 FEET WITH NO
SIGNIFICANT WEATHER AND/OR OBSTRUCTIONS TO VISIBILITY.

* - THESE STATIONS ARE NOT NWS STATIONS...THUS NOT UNDER NWS
QUALITY CONTROL.  THEY ALSO DO NOT REPORT WEATHER SUCH
AS PRECIPITATION OR FOG.

IAZ001>003-012>014-020>022-031>034-043>046-252000-
   NORTHWEST IOWA

CITY           SKY/WX    TMP DP  RH WIND       PRES   REMARKS
CARROLL *      SUNNY     77  68  73 S13       29.80S
CHEROKEE *     MOSUNNY   79  70  73 SE6       29.78F HX  81
DENISON *      SUNNY     79  70  73 S14       29.77S HX  81
LE MARS *      PTSUNNY   81  70  69 VRB3      29.79R HX  84
ORANGE CITY *  PTSUNNY   79  66  65 SW6       29.80R HX  81
SHELDON *      CLOUDY    77  70  78 S7G13     29.79S
SIOUX CITY     SUNNY     84  71  65 S3        29.77R HX  89
SPENCER        SUNNY     79  68  69 S8        29.80S HX  81
STORM LAKE *   PTSUNNY   77  70  78 S8G15     29.81S
$$

IAZ055>058-069>071-079>083-090>094-252000-
   SOUTHWEST IOWA

CITY           SKY/WX    TMP DP  RH WIND       PRES   REMARKS
ATLANTIC *     MOSUNNY   82  70  65 S16       29.77S HX  86
AUDUBON *      SUNNY     81  72  74 SE10G17   29.81R HX  84
CLARINDA *     SUNNY     86  77  74 SE13G21   29.77F HX  97
COUNCIL BLFS * SUNNY     86  79  79 S14       29.74F HX  99
CRESTON *      MOSUNNY   77  68  73 SE21G29   29.81F
HARLAN  *      MOSUNNY   82  72  69 S8G15     29.81S HX  87
LAMONI         MOSUNNY   75  65  70 SE16G23   29.84F
RED OAK *      SUNNY     88  77  70 S15       29.76S HX 100
SHENANDOAH *   SUNNY     90  79  70 SE14      29.74F HX 105
$$

IAZ047>049-059>061-072>074-084-252000-
   CENTRAL IOWA

CITY           SKY/WX    TMP DP  RH WIND       PRES   REMARKS
AMES           MOSUNNY   77  66  68 S20G29    29.81R
ANKENY *       SUNNY     77  66  69 S17G30    29.80R
CHARITON *     CLOUDY    72  64  78 SE20G30   29.84F
DES MOINES     PTSUNNY   77  65  66 S23G31    29.81F
GRINNELL*      SUNNY     73  64  73 S21G28    29.82S
KNOXVILLE *    MOSUNNY   77  66  69 S25G32    29.79F
MARSHALLTOWN   PTSUNNY   77  66  68 S10G21    29.82R
PELLA *        MOSUNNY   77  66  69 S16G28    29.83F
PERRY *          N/A     77  66  69 S15G23    29.82R
$$

IAZ004>006-015-016-023>025-035-036-252000-
   NORTH CENTRAL IOWA

CITY           SKY/WX    TMP DP  RH WIND       PRES   REMARKS
ALGONA *       CLOUDY    77  66  69 S16       29.81F
CLARION *      CLOUDY    75  66  73 S15G24    29.82S
ESTHERVILLE    MOSUNNY   77  67  71 S16       29.80S
FORT DODGE *   CLOUDY    75  64  69 S13       29.82F
MASON CITY     MOSUNNY   81  67  62 S17G26    29.83F HX  83
FOREST CITY *  CLOUDY    77  66  69 S15       29.82F
IOWA FALLS *   CLOUDY    77  66  69 S12       29.84F
$$

IAZ007>011-017>019-026>030-037>042-050>054-066-252000-
   NORTHEAST IOWA

CITY           SKY/WX    TMP DP  RH WIND       PRES   REMARKS
CEDAR RAPIDS   PTSUNNY   73  64  73 S17G24    29.86R
CHARLES CITY * PTSUNNY   77  68  73 S8G15     29.84F
CLINTON *      CLOUDY    70  63  78 SW10G18   29.93R
DECORAH *      CLOUDY    70  64  83 VRB7G15   29.87S
DUBUQUE        CLOUDY    71  63  75 S14       29.90S
MONTICELLO *   CLOUDY    73  64  73 SW12      29.88R
OELWEIN *      CLOUDY    72  66  83 S12G18    29.87F
WATERLOO       CLOUDY    76  66  71 S14       29.84R
$$

IAZ064-065-067-068-078-252000-
   EAST CENTRAL IOWA

CITY           SKY/WX    TMP DP  RH WIND       PRES   REMARKS
DAVENPORT      PTSUNNY   69  62  78 S12G25    29.87R
IOWA CITY      PTSUNNY   73  66  78 S14G23    29.87R
MT. PLEASANT * MOSUNNY   72  61  68 S18G33    29.86F
MUSCATINE *    MOSUNNY   73  63  68 S18G28    29.86R
QUAD CITIES    PTSUNNY   70  64  81 S9G20     29.86S
$$

IAZ062-063-075>077-085>089-095>099-252000-
   SOUTHEAST IOWA

CITY           SKY/WX    TMP DP  RH WIND       PRES   REMARKS
BURLINGTON     PTSUNNY   69  62  78 S24G38    29.87F
FAIRFIELD *    MOSUNNY   73  64  73 S18G26    29.85F
FORT MADISON * SUNNY     72  63  73 S23G29    29.88F
KEOKUK *       SUNNY     70  64  83 S20G26    29.87F
OSKALOOSA *    CLOUDY    73  66  78 S23G30    29.83F
CENTERVILLE *  SUNNY     72  66  83 SE16G23   29.89F
OTTUMWA        PTSUNNY   73  65  75 S20G36    29.83F
WASHINGTON *   MOSUNNY   73  66  78 S21G32    29.85S
$$

ABBREVIATIONS USED IN REMARKS
   TC - TEMPERATURES IN CELSIUS
  WCI - WIND CHILL INDEX
   HX - HEAT INDEX
  VSB - VISIBILITY
$$




USA.gov is the U.S. government's official web portal to all federal, state and local government web resources and services.